www.pogodaiklimat.ru

Погода и климат >> Архив погоды >> Мьянма >> Пьинмана


ПОГОДА в Пьинмане

  • Прогноз погоды в Пьинмане
  • Монитор погоды в Пьинмане

АРХИВ ПОГОДЫ в Пьинмане

Время (UTC), дата Ветер
(напр.,м/с)
 
Видим.   Явления Облачность Т
(С)
Тd
(С)
f
(%)
Тe
(С)
Тes
(С)
Комфортность P
(гПа)
Po
(гПа)
Тmin
(С)
Tmax
(С)
R
(мм)
R24
(мм)
S
(см)
06 15.09 ЮВ 1 8000 м 1/1 600 м
[Cb calv]
+32.2 +26.5 72 +49 +70 опасность
перегрева
1006.5 994.9
09 15.09 штиль 0 8000 м 4/4 600 м
[Cb cap Ci fib]
+34.7 +26.6 63 +52 +58 опасность
перегрева
1003.3 991.8
12 15.09 штиль 0 7000 м 8/5 300 м
[Cb cap Ac und]
+31.0 +26.7 78 +48 +48 опасность
перегрева
1004.1 992.4 +34.9
03 16.09 ЮВ 1 8000 м 4/4 300 м
[Cu Sc]
+28.0 +25.0 84 +40 +49 очень
душно
1009.8 998.0
06 16.09 ЮВ 2 8000 м 4/4 300 м
[Cb calv]
+31.8 +26.5 74 +49 +60 опасность
перегрева
1006.6 994.9
09 16.09 штиль 0 8000 м 3/3 300 м
[Cb calv]
+34.0 +27.0 67 +52 +59 опасность
перегрева
1004.2 992.6
12 16.09 штиль 0 6000 м {дождь, морось} 9/6 300 м
[Cb cap Ac As]
+26.6 +25.6 94 +39 +39 очень
душно
1004.2 992.4 +34.3 7
00 17.09 штиль 0 7000 м 5/5 300 м
[Cb cap]
+26.0 +24.6 92 +37 +37 очень
душно
1008.7 996.8 +24.4
03 17.09 ЮЗ 1 8000 м 5/5 300 м
[Cu Sc]
+28.2 +25.0 83 +41 +48 опасность
перегрева
1010.8 998.9
06 17.09 штиль 0 8000 м 3/3 300 м
[Cu med, cong]
+31.4 +25.4 71 +46 +64 опасность
перегрева
1007.7 996.0
09 17.09 СЗ 1 8000 м 3/3 300 м
[Cb calv]
+34.2 +27.0 66 +52 +59 опасность
перегрева
1006.0 994.4
12 17.09 штиль 0 6000 м 8/6 300 м
[Cb cap Ci fib]
+31.3 +26.7 77 +49 +49 опасность
перегрева
1006.0 994.3 +34.5
00 18.09 штиль 0 7000 м 3/3 300 м
[Cb cap]
+25.6 +24.6 94 +36 +36 очень
душно
1009.9 998.0 +24.0
03 18.09 ЮВ 1 8000 м 4/4 300 м
[Cu Sc]
+29.0 +25.9 83 +43 +52 опасность
перегрева
1010.8 999.0
06 18.09 штиль 0 7000 м гроза, ливневой дождь 9/6 300 м
[Cb cap Ac As]
+27.0 +25.6 92 +40 +45 очень
душно
1010.0 998.1
09 18.09 СЗ 2 8000 м {гроза, морось} 3/3 300 м
[Cb cap]
+31.3 +26.7 77 +49 +54 опасность
перегрева
1006.4 994.7
12 18.09 штиль 0 6000 м 4/3 300 м
[Cb cap Ac lent]
+29.0 +25.9 83 +43 +43 опасность
перегрева
1007.6 995.8 +31.4 3
00 19.09 штиль 0 7000 м 3/3 600 м
[Sc Ci fib]
+25.6 +24.6 94 +36 +36 очень
душно
1009.8 997.9 +24.0
03 19.09 штиль 0 8000 м 5/5 300 м
[Cb cap]
+28.0 +25.0 84 +40 +48 очень
душно
1011.7 999.8
06 19.09 ЮЗ 1 7000 м 10/6 300 м
[Cb cap Ac As]
+28.8 +25.9 84 +43 +46 опасность
перегрева
1011.2 999.4
09 19.09 штиль 0 8000 м {гроза} 5/4 600 м
[Cb cap Ac trans]
+30.1 +25.3 76 +44 +50 опасность
перегрева
1006.5 994.8
12 19.09 штиль 0 6000 м 4/3 600 м
[Cb cap Ac trans]
+28.8 +25.9 84 +43 +43 опасность
перегрева
1007.5 995.7 +30.5
00 20.09 штиль 0 7000 м 10/6 300 м
[Cb cap Ac As]
+25.0 +23.3 90 +33 +33 очень
душно
1008.6 996.6 +23.6
03 20.09 штиль 0 7000 м 9/6 300 м
[Cb cap Ac und]
+27.4 +24.0 82 +38 +41 очень
душно
1010.6 998.7
06 20.09 штиль 0 8000 м 8/4 300 м
[Cb cap Ac und]
+31.3 +26.7 77 +49 +57 опасность
перегрева
1008.7 997.0
09 20.09 штиль 0 8000 м {гроза} 8/6 300 м
[Cb cap Ac und]
+29.8 +26.6 83 +46 +49 опасность
перегрева
1005.9 994.2
12 20.09 штиль 0 5000 м слаб. морось {дождь} 10/6 200 м
[Cb cap Ac As]
+26.6 +25.6 94 +39 +39 очень
душно
1007.5 995.6 +32.8 2
00 21.09 штиль 0 4000 м дымка {туман} 5/3 600 м
[Sc Ac lent]
+24.0 +24.0 100 +33 +33 очень
душно
1008.6 996.6 +23.0
03 21.09 штиль 0 8000 м 1/1 600 м
[Cu hum]
+27.0 +24.0 84 +37 +52 опасность
солнечного
удара
1011.2 999.3
06 21.09 СВ 1 8000 м 3/3 600 м
[Cb calv]
+32.0 +24.8 66 +45 +61 опасность
перегрева
1007.7 996.0
09 21.09 З 1 8000 м {морось} 8/6 300 м
[Cb cap Ac cuf]
+30.3 +25.3 75 +44 +47 опасность
перегрева
1005.1 993.4
12 21.09 штиль 0 7000 м 8/5 300 м
[Cb cap As trans Ci fib]
+29.0 +25.9 83 +43 +43 опасность
перегрева
1006.2 994.4 +33.2 0.0
00 22.09 штиль 0 7000 м {дождь, морось} 8/3 300 м
[Sc Ac und]
+24.4 +24.0 98 +34 +34 очень
душно
1011.1 999.1 +23.0 3
03 22.09 СЗ 1 8000 м 4/3 600 м
[Sc Ci fib]
+27.2 +24.0 83 +38 +47 очень
душно
1012.3 1000.4

 

Местоположение метеостанции Пьинмана (Мьянма): широта 19.72 долгота 96.22 высота над уровнем моря 104 м.

В архиве по умолчанию представлена погода в Пьинмане за последнюю неделю. Архивные данные за месяц целиком и за предыдущие месяцы, начиная с января 2011 года, Вы можете получить, выбрав интересующий диапазон дат из раскрывающегося списка и нажав кнопку "Ввод!".


*Определитесь, кто Вы:
робот инопланетянин человек

Внимание! Время в таблицах - всемирное. Для получения местного времени необходимо прибавить поправку, которая равна 6.5 ч.

Смотрите также архив погоды в соседних городах и на ближайших метеорологических станциях:

Погода в Таунгу (Мьянма) (93 км)
Погода в Лойко (Мьянма) (105 км)
Погода в Мейтхиле (Мьянма) (130 км)
Погода в Магуэе (Мьянма) (141 км)
Погода в Таунджи (Мьянма) (146 км)
Погода в Проме (Мьянма) (147 км)
Погода в Минбу (Мьянма) (149 км)
Погода в Мае Хонг Сон (Таиланд) (175 км)
Погода в Чау (Мьянма) (195 км)
Погода в Намсаме (Мьянма) (204 км)

Пояснения к столбцам:

Ветер - указаны скорость ветра в м/с - средняя за 10 мин, порывы в срок и между сроками (в фигурных скобках) и направление, откуда дует ветер: С - северный, СВ - северо-восточный, В - восточный, ЮВ - юго-восточный, Ю - южный, ЮЗ - юго-западный, З - западный, СЗ - северо-западный.
Видимость - горизонтальная дальность видимости в метрах или километрах. При видимости от 1 до 10 км при отсутствии осадков обычно наблюдается дымка, при ухудшении видимости до 1 км и менее - туман. В сухую погоду видимость может ухудшаться дымом, пылью или мглою.
Явления - указаны атмосферные явления, наблюдавшиеся в срок или в последний час перед сроком; фигурными скобками обозначены явления, наблюдавшиеся между сроками (за 1-3 часа до срока); квадратными скобками обозначены град или гололедные отложения с указанием их диаметра в мм.
Облачность - указаны через наклонную черту общая и нижняя облачность в баллах и высота нижней границы облаков в метрах; квадратными скобками обозначены формы облаков: Ci - перистые, Cs - перисто-слоистые, Cc - перисто-кучевые, Ac - высококучевые, As - высокослоистые, Sc - слоисто-кучевые, Ns - слоисто-дождевые, Cu - кучевые, Cb - кучево-дождевые. Подробнее классификацию облаков см. в Атласе облаков (PDF).
T - Температура воздуха - температура, измеренная на высоте 2 м над землей.
Td - Температура точки росы - температура, при понижении до которой содержащийся в воздухе водяной пар достигнет насыщения.
f - Относительная влажность воздуха - влажноcть воздуха, измеренная на высоте 2 м над землей.
Te - Эффективная температура - температура, которую ощущает одетый по сезону человек в тени. Характеристика душности погоды. При расчете учитывается влияние влажности воздуха и скорости ветра на теплоощущения человека.
Tes - Эффективная температура на солнце - температура, которую ощущает человек, с поправкой на солнечный нагрев. Характеристика знойности погоды. Зависит от высоты солнца над горизонтом, облачности и скорости ветра. Ночью, в пасмурную погоду, а также при ветре 12 м/с и более поправка равна нулю.
P - Атмосферное давление - приведенное к уровню моря атмосферное давление.
Po - Атмосферное давление - измеренное на уровне метеостанции атмосферное давление.
Tmin - Минимальная температура - минимум температуры воздуха на высоте 2 м над землей.
Tmax - Максимальная температура - максимум температуры воздуха на высоте 2 м над землей.
R - Количество осадков - Количество выпавших осадков за период времени, мм. При наведении курсора мыши на число - период времени, за который выпало указанное количество осадков.
R24 - Количество осадков - Количество выпавших осадков за 24 часа, мм.
S - Снежный покров - Высота снежного покрова, см. При наведении курсора мыши на число - состояние снежного покрова и степень покрытия местности в баллах.